Moses Lake, WA

8:45 AM PDT on July 22, 2017 (GMT -0700)
Grant County International

Weather History for KMWH - April, 2014

Change the Weather History Date:

Friday, April 18, 2014

  Actual Average Record
Temperature  
Mean Temperature 51 °F 51 °F  
Max Temperature 63 °F 64 °F 84 °F (2016)
Min Temperature 39 °F 37 °F 28 °F (2005)
Degree Days  
Heating Degree Days 14 14  
Month to date heating degree days 215 292  
Since 1 July heating degree days 5360 5464  
Cooling Degree Days 0 0  
Month to date cooling degree days 0 0  
Year to date cooling degree days 0 0  
Moisture  
Dew Point 26 °F    
Average Humidity 44    
Maximum Humidity 66    
Minimum Humidity 22    
Precipitation  
Precipitation 0.00 in 0.02 in 0.03 in (2017)
Month to date precipitation 0.05 0.43  
Year to date precipitation 1.91 3.15  
Sea Level Pressure  
Sea Level Pressure 29.94 in    
Wind  
Wind Speed 10 mph (WSW)    
Max Wind Speed 22 mph    
Max Gust Speed 29 mph    
Visibility 10 miles    
Events      
T = Trace of Precipitation, MM = Missing Value Source: NWS Daily Summary

Daily Weather History Graph

Daily Weather History Graph

Search for Another Location

Airport or City:

Trip Planner

Search our weather history database for the weather conditions in past years. The results will help you decide how hot, cold, wet, or windy it might be!

Date:

Astronomy

Apr. 18, 2014 Rise Set
Actual Time 6:03 AM PDT 7:50 PM PDT
Civil Twilight 5:31 AM PDT 8:23 PM PDT
Nautical Twilight 4:51 AM PDT 9:03 PM PDT
Astronomical Twilight 4:08 AM PDT 9:46 PM PDT
Moon 11:49 PM PDT (4/18) 8:20 AM PDT (4/18)
Length of Visible Light 14h 52m
Length of Day
13h 47m
Waning Gibbous, 86% of the Moon is Illuminated
Apr 18
Waning Gibbous
Apr 22
Last Quarter
Apr 28
New
May 6
First Quarter
May 14
Full

Hourly Weather History & Observations

Time (PDT) Temp. Windchill Dew Point Humidity Pressure Visibility Wind Dir Wind Speed Gust Speed Precip Events Conditions
12:52 AM 48.0 °F - 37.9 °F 68% 29.75 in 10.0 mi SW 13.8 mph - N/A   Clear
1:52 AM 45.0 °F 38.9 °F 33.1 °F 63% 29.79 in 10.0 mi West 12.7 mph 24.2 mph N/A   Clear
2:52 AM 44.1 °F 37.7 °F 34.0 °F 68% 29.82 in 10.0 mi West 12.7 mph - N/A   Clear
3:52 AM 45.0 °F 38.2 °F 30.0 °F 56% 29.84 in 10.0 mi WSW 15.0 mph - N/A   Clear
4:52 AM 39.9 °F 33.9 °F 28.9 °F 65% 30.02 in 10.0 mi West 9.2 mph - N/A   Clear
5:52 AM 42.1 °F 34.9 °F 28.9 °F 60% 29.88 in 10.0 mi West 13.8 mph - N/A   Clear
6:52 AM 42.1 °F 37.1 °F 30.0 °F 62% 29.91 in 10.0 mi SSW 8.1 mph - N/A   Clear
7:52 AM 46.9 °F - 30.0 °F 52% 29.94 in 10.0 mi WSW 5.8 mph - N/A   Clear
8:52 AM 51.1 °F - 28.9 °F 43% 29.95 in 10.0 mi West 9.2 mph - N/A   Clear
9:52 AM 52.0 °F - 28.0 °F 40% 29.95 in 10.0 mi WSW 11.5 mph - N/A   Clear
10:52 AM 55.0 °F - 27.0 °F 34% 29.97 in 10.0 mi WSW 15.0 mph 20.7 mph N/A   Clear
11:52 AM 57.9 °F - 24.1 °F 27% 29.97 in 10.0 mi West 13.8 mph - N/A   Clear
12:52 PM 59.0 °F - 23.0 °F 25% 29.98 in 10.0 mi WSW 10.4 mph 21.9 mph N/A   Clear
1:52 PM 59.0 °F - 21.2 °F 23% 29.98 in 10.0 mi WSW 15.0 mph 25.3 mph N/A   Clear
2:52 PM 62.1 °F - 24.1 °F 23% 29.99 in 10.0 mi West 16.1 mph 21.9 mph N/A   Clear
3:52 PM 61.0 °F - 21.9 °F 22% 29.98 in 10.0 mi West 9.2 mph - N/A   Clear
4:52 PM 61.0 °F - 21.0 °F 21% 29.97 in 10.0 mi SW 9.2 mph - N/A   Clear
5:52 PM 60.1 °F - 21.9 °F 23% 29.97 in 10.0 mi SW 11.5 mph - N/A   Clear
6:52 PM 57.9 °F - 19.9 °F 23% 29.97 in 10.0 mi West 11.5 mph - N/A   Clear
7:52 PM 53.6 °F - 23.0 °F 30% 29.96 in 10.0 mi West 6.9 mph - N/A   Clear
8:52 PM 48.9 °F - 24.1 °F 38% 29.97 in 10.0 mi West 5.8 mph - N/A   Clear
9:52 PM 44.1 °F 40.8 °F 23.0 °F 43% 29.98 in 10.0 mi North 5.8 mph - N/A   Clear
10:52 PM 45.0 °F - 23.0 °F 42% 29.97 in 10.0 mi Calm Calm - N/A   Clear
11:52 PM 39.9 °F 37.8 °F 27.0 °F 60% 29.96 in 10.0 mi SE 3.5 mph - N/A   Clear